Calgary Springbank, Alberta

9:17 AM MST on February 06, 2016 (GMT -0700)
Springbank

Weather History for CYBW - September, 2012

Change the Weather History Date:

Tuesday, September 25, 2012

  Actual Average Record
Temperature  
Mean Temperature 48 °F -  
Max Temperature 64 °F 50 °F 82 °F (2001)
Min Temperature 33 °F 28 °F 28 °F (2002)
Degree Days  
Heating Degree Days 16    
Moisture  
Dew Point 43 °F    
Average Humidity 76    
Maximum Humidity 100    
Minimum Humidity 39    
Precipitation  
Precipitation 0.03 in - - ()
Sea Level Pressure  
Sea Level Pressure 30.08 in    
Wind  
Wind Speed 9 mph ()    
Max Wind Speed 20 mph    
Max Gust Speed 24 mph    
Visibility 9.7 miles    
Events Rain    
Averages and records for this station are not official NWS values.
T = Trace of Precipitation, MM = Missing Value Source: Averaged Metar Reports

Daily Weather History Graph

Daily Weather History Graph

Search for Another Location

Airport or City:

Trip Planner

Search our weather history database for the weather conditions in past years. The results will help you decide how hot, cold, wet, or windy it might be!

Date:

Astronomy

Sep. 25, 2012 Rise Set
Actual Time 7:29 AM MDT 7:27 PM MDT
Civil Twilight 6:56 AM MDT 8:00 PM MDT
Nautical Twilight 6:17 AM MDT 8:39 PM MDT
Astronomical Twilight 5:37 AM MDT 9:19 PM MDT
Moon 5:16 PM MDT (9/25) 2:28 AM MDT (9/25)
Length of Visible Light 13h 04m
Length of Day
11h 58m
Waxing Gibbous, 80% of the Moon is Illuminated
Sep 25
Waxing Gibbous
Sep 29
Full
Oct 8
Last Quarter
Oct 15
New
Oct 21
First Quarter

Hourly Weather History & Observations

Time (MDT) Temp. Windchill Dew Point Humidity Pressure Visibility Wind Dir Wind Speed Gust Speed Precip Events Conditions
5:00 AM 35.6 °F 29.9 °F 33.8 °F 93% 29.96 in 15.0 mi NW 6.9 mph - N/A   Clear
6:00 AM 37 °F - 35 °F 87% 29.96 in - NW 6.9 mph - -  
6:00 AM 37.4 °F 31.4 °F 33.8 °F 87% 29.96 in 15.0 mi NW 8.1 mph - N/A   Clear
7:00 AM 35.6 °F 29.9 °F 33.8 °F 93% 29.99 in 15.0 mi NW 6.9 mph - N/A   Clear
8:00 AM 33.8 °F 27.0 °F 32.0 °F 93% 30.01 in 15.0 mi NW 8.1 mph - N/A   Clear
9:00 AM 42.8 °F 40.1 °F 39.2 °F 87% 30.01 in 8.0 mi NW 4.6 mph - N/A   Partly Cloudy
10:00 AM 51.8 °F - 39.2 °F 62% 30.02 in 8.0 mi NW 15.0 mph 24.2 mph N/A   Partly Cloudy
10:21 AM 57.2 °F - 41.0 °F 55% 30.01 in 9.0 mi North 13.8 mph - N/A   Partly Cloudy
11:00 AM 59.0 °F - 41.0 °F 51% 30.01 in 9.0 mi North 13.8 mph 20.7 mph N/A   Partly Cloudy
12:00 PM 62 °F - 44 °F 39% 30.03 in 9 mi North 15.0 mph - -   Haze
12:00 PM 62.6 °F - 42.8 °F 48% 30.03 in 9.0 mi North 16.1 mph - N/A   Partly Cloudy
1:00 PM 62.6 °F - 44.6 °F 52% 30.04 in 9.0 mi North 17.3 mph 24.2 mph N/A   Scattered Clouds
2:00 PM 62.6 °F - 44.6 °F 52% 30.06 in 10.0 mi NNW 19.6 mph - N/A   Mostly Cloudy
3:00 PM 60.8 °F - 44.6 °F 55% 30.07 in 15.0 mi North 16.1 mph 21.9 mph N/A   Mostly Cloudy
3:34 PM 57.2 °F - 46.4 °F 67% 30.09 in 10.0 mi North 11.5 mph 18.4 mph N/A Rain Light Rain Showers
4:00 PM 53.6 °F - 48.2 °F 82% 30.11 in 8.0 mi NE 12.7 mph - N/A Rain Light Rain Showers
4:38 PM 55.4 °F - 50.0 °F 82% 30.12 in 10.0 mi North 6.9 mph - N/A   Overcast
5:00 PM 53.6 °F - 48.2 °F 82% 30.13 in 10.0 mi North 12.7 mph - N/A   Overcast
6:00 PM 52 °F - 47 °F 77% 30.17 in 10 mi North 6.9 mph - -   Partly Cloudy
6:00 PM 51.8 °F - 46.4 °F 82% 30.16 in 10.0 mi North 6.9 mph - N/A Rain Light Rain Showers
6:52 PM 48.2 °F - 48.2 °F 100% 30.20 in 3.0 mi WNW 15.0 mph - N/A Rain Rain Showers
7:00 PM 48.2 °F - 48.2 °F 100% 30.20 in 4.0 mi WNW 15.0 mph - N/A Rain Light Rain Showers
8:00 PM 48.2 °F - 46.4 °F 93% 30.22 in 7.0 mi WNW 12.7 mph - N/A Rain Light Rain Showers
9:00 PM 48.2 °F - 46.4 °F 93% 30.22 in 7.0 mi WNW 6.9 mph - N/A Rain Light Rain Showers
10:00 PM 46.4 °F 41.5 °F 46.4 °F 100% 30.14 in 7.0 mi WNW 10.4 mph - N/A Rain Light Rain Showers